Retour au catalogue

QIANFAN-92

ActifCommunicationsPO
NORAD 66034·PAYLOAD·🇨🇳 China

Lancé Oct 17, 2025 depuis Taiyuan Satellite Launch Center

Loading…

Prochains Passages (prochaines 24 heures)

TLE

FraisSource: Space-Track

Époque: Sep 14, 2026, 07:30 UTC

1 66034U 25233B   26257.31269255  .00000067  00000-0  84486-4 0  9996
2 66034  89.0029  34.1336 0001959  99.4697 260.6676 13.50998626 45211

Suivez QIANFAN-92 en temps réel avec AllMySat

Download on the App Store